Location: Newark
(19.2431°N, 110.4642°E)
Time: 04:49:02
(UTC+00:00)

Hubble Space Telescope - Visible Passes

Search period start: 22 August 2019 00:00
Search period end: 01 September 2019 00:00
Orbit: 536 x 540 km, 28.5° (Epoch: 21 August)

Date Brightness Start Highest point End Pass type
(mag) Time Alt. Az. Time Alt. Az. Time Alt. Az.
22 Aug 2.1 11:47:58 10° NW 11:51:38 31° NNE 11:54:34 14° ENE visible
22 Aug 3.5 13:28:54 10° WNW 13:29:53 17° WNW 13:29:53 17° WNW visible
23 Aug 1.8 11:37:22 10° NW 11:41:11 36° NNE 11:44:32 13° E visible
23 Aug 3.2 13:18:24 10° WNW 13:19:52 21° WNW 13:19:52 21° WNW visible
24 Aug 1.5 11:26:47 10° NW 11:30:43 43° NNE 11:34:34 10° E visible
24 Aug 2.8 13:07:58 10° W 13:09:54 25° W 13:09:54 25° W visible
25 Aug 1.2 11:16:12 10° WNW 11:20:14 54° NNE 11:24:15 10° E visible
25 Aug 2.6 12:57:36 10° W 12:59:58 27° WSW 12:59:58 27° WSW visible
26 Aug 2.5 12:47:20 10° W 12:50:07 24° SW 12:50:07 24° SW visible
27 Aug 2.7 12:37:14 10° WSW 12:40:11 19° SSW 12:40:19 19° SSW visible
28 Aug 3.1 12:27:25 10° WSW 12:29:36 14° SSW 12:30:34 13° SSW visible
